| time (UTC) | temp F | wind direction | speed knots | gust knots | rain 1hr in | rain 24hr in | rain mn in | humidity % | barometer mb |
| 20260906085930 | 66 | 207 | 0.0 | 0.0 | 0.00 | 0.00 | 0.00 | 99 | 1011.5 |
| 20260906085429 | 66 | 216 | 0.0 | 0.9 | 0.00 | 0.00 | 0.00 | 99 | 1011.7 |
| 20260906084928 | 66 | 200 | 0.0 | 0.0 | 0.00 | 0.00 | 0.00 | 99 | 1011.3 |
| 20260906084424 | 66 | 200 | 0.0 | 0.0 | 0.00 | 0.00 | 0.00 | 99 | 1011.4 |
| 20260906083923 | 66 | 200 | 0.0 | 0.0 | 0.00 | 0.00 | 0.00 | 99 | 1011.5 |
| 20260906083418 | 66 | 202 | 0.0 | 0.0 | 0.00 | 0.00 | 0.00 | 99 | 1011.5 |
| 20260906082918 | 66 | 203 | 0.0 | 0.0 | 0.00 | 0.00 | 0.00 | 99 | 1011.5 |
| 20260906082413 | 66 | 195 | 0.0 | 0.0 | 0.00 | 0.00 | 0.00 | 99 | 1011.5 |
| 20260906081909 | 66 | 195 | 0.0 | 0.0 | 0.00 | 0.00 | 0.00 | 99 | 1011.4 |
| 20260906081404 | 66 | 201 | 0.0 | 0.0 | 0.00 | 0.00 | 0.00 | 99 | 1011.5 |
| 20260906080900 | 66 | 204 | 0.0 | 0.0 | 0.00 | 0.00 | 0.00 | 99 | 1011.7 |
| 20260906080357 | 66 | 195 | 0.0 | 0.0 | 0.00 | 0.00 | 0.00 | 99 | 1011.4 |
| 20260906075855 | 66 | 194 | 0.0 | 0.0 | 0.00 | 0.00 | 0.00 | 99 | 1011.4 |
| 20260906075351 | 66 | 197 | 0.0 | 0.0 | 0.00 | 0.00 | 0.00 | 99 | 1011.4 |
| 20260906074846 | 66 | 200 | 0.0 | 0.0 | 0.00 | 0.00 | 0.00 | 99 | 1011.7 |
| 20260906074346 | 67 | 200 | 0.0 | 0.0 | 0.00 | 0.00 | 0.00 | 99 | 1011.3 |
| 20260906073844 | 67 | 200 | 0.0 | 0.0 | 0.00 | 0.00 | 0.00 | 99 | 1011.4 |
| 20260906073339 | 67 | 200 | 0.0 | 0.0 | 0.00 | 0.00 | 0.00 | 99 | 1011.4 |
| 20260906072836 | 67 | 195 | 0.0 | 0.0 | 0.00 | 0.00 | 0.00 | 99 | 1011.1 |
| 20260906072332 | 67 | 195 | 0.0 | 0.0 | 0.00 | 0.00 | 0.00 | 99 | 1010.9 |
| 20260906071827 | 67 | 195 | 0.0 | 0.0 | 0.00 | 0.00 | 0.00 | 99 | 1011.2 |
| 20260906071322 | 67 | 203 | 0.0 | 0.0 | 0.00 | 0.00 | 0.00 | 99 | 1011.5 |
| 20260906070818 | 67 | 196 | 0.0 | 0.0 | 0.00 | 0.00 | 0.00 | 99 | 1011.4 |
| 20260906070314 | 67 | 193 | 0.0 | 0.0 | 0.00 | 0.00 | 0.00 | 99 | 1011.4 |
| 20260906065808 | 67 | 195 | 0.0 | 0.0 | 0.00 | 0.00 | 0.00 | 99 | 1011.5 |
| 20260906065305 | 67 | 195 | 0.0 | 0.0 | 0.00 | 0.00 | 0.00 | 99 | 1011.7 |
| 20260906064759 | 67 | 203 | 0.0 | 0.0 | 0.00 | 0.00 | 0.00 | 99 | 1011.9 |
| 20260906064255 | 67 | 203 | 0.0 | 0.0 | 0.00 | 0.00 | 0.00 | 99 | 1012.0 |
| 20260906063749 | 67 | 203 | 0.0 | 0.0 | 0.00 | 0.00 | 0.00 | 99 | 1012.0 |
| 20260906063245 | 67 | 207 | 0.0 | 0.0 | 0.00 | 0.00 | 0.00 | 99 | 1012.2 |
| 20260906062740 | 67 | 207 | 0.0 | 0.0 | 0.00 | 0.00 | 0.00 | 99 | 1012.3 |
| 20260906062239 | 67 | 207 | 0.0 | 0.0 | 0.00 | 0.00 | 0.00 | 99 | 1012.3 |
| 20260906061735 | 67 | 207 | 0.0 | 0.0 | 0.00 | 0.00 | 0.00 | 99 | 1012.2 |
| 20260906061232 | 67 | 207 | 0.0 | 0.0 | 0.00 | 0.00 | 0.00 | 99 | 1012.2 |
| 20260906060726 | 68 | 207 | 0.0 | 0.0 | 0.00 | 0.00 | 0.00 | 99 | 1012.2 |
| 20260906060224 | 68 | 208 | 0.0 | 0.0 | 0.00 | 0.00 | 0.00 | 99 | 1012.2 |
| 20260906055719 | 68 | 206 | 0.0 | 0.0 | 0.00 | 0.00 | 0.00 | 99 | 1011.9 |
| 20260906055214 | 68 | 197 | 0.0 | 0.0 | 0.00 | 0.00 | 0.00 | 99 | 1012.2 |
| 20260906054709 | 68 | 195 | 0.0 | 0.0 | 0.00 | 0.00 | 0.00 | 99 | 1012.4 |
| 20260906054204 | 68 | 197 | 0.0 | 0.0 | 0.00 | 0.00 | 0.00 | 99 | 1012.3 |
| 20260906053701 | 68 | 195 | 0.0 | 0.0 | 0.00 | 0.00 | 0.00 | 99 | 1012.5 |
| 20260906053156 | 68 | 197 | 0.0 | 0.0 | 0.00 | 0.00 | 0.00 | 99 | 1012.6 |
| 20260906052651 | 68 | 199 | 0.0 | 0.0 | 0.00 | 0.00 | 0.00 | 99 | 1012.6 |
| 20260906052147 | 68 | 207 | 0.0 | 0.0 | 0.00 | 0.00 | 0.00 | 99 | 1012.4 |
| 20260906051644 | 69 | 209 | 0.0 | 0.0 | 0.00 | 0.00 | 0.00 | 99 | 1012.4 |
| 20260906051143 | 69 | 212 | 0.0 | 0.0 | 0.00 | 0.00 | 0.00 | 99 | 1012.6 |
| 20260906050639 | 69 | 207 | 0.0 | 0.0 | 0.00 | 0.00 | 0.00 | 99 | 1012.4 |
| 20260906050134 | 69 | 213 | 0.0 | 0.0 | 0.00 | 0.00 | 0.00 | 98 | 1012.7 |
| 20260906045632 | 69 | 207 | 0.0 | 0.0 | 0.00 | 0.00 | 0.00 | 98 | 1012.7 |
| 20260906045127 | 69 | 204 | 0.0 | 0.0 | 0.00 | 0.00 | 0.00 | 98 | 1012.5 |
| 20260906044624 | 69 | 206 | 0.0 | 0.0 | 0.00 | 0.00 | 0.00 | 98 | 1012.6 |
| 20260906044119 | 69 | 198 | 0.0 | 0.0 | 0.00 | 0.00 | 0.00 | 98 | 1012.7 |
| 20260906043615 | 69 | 206 | 0.0 | 0.0 | 0.00 | 0.00 | 0.00 | 98 | 1012.7 |
| 20260906043110 | 69 | 204 | 0.0 | 0.0 | 0.00 | 0.00 | 0.00 | 98 | 1012.6 |
| 20260906042609 | 69 | 201 | 0.0 | 0.0 | 0.00 | 0.00 | 0.00 | 98 | 1012.6 |
| 20260906042104 | 69 | 209 | 0.0 | 0.0 | 0.00 | 0.00 | 0.00 | 98 | 1012.9 |
| 20260906041600 | 70 | 207 | 0.0 | 0.0 | 0.00 | 0.00 | 0.00 | 98 | 1012.7 |
| 20260906041055 | 69 | 212 | 1.7 | 1.7 | 0.00 | 0.00 | 0.00 | 98 | 1012.8 |
| 20260906040550 | 69 | 201 | 0.0 | 0.0 | 0.00 | 0.00 | 0.00 | 98 | 1012.7 |
| 20260906040046 | 69 | 200 | 0.0 | 0.0 | 0.00 | 0.00 | 0.00 | 98 | 1012.8 |
| 20260906035541 | 69 | 199 | 0.0 | 0.0 | 0.00 | 0.00 | 0.00 | 98 | 1012.7 |
| 20260906035037 | 70 | 202 | 0.0 | 0.0 | 0.00 | 0.00 | 0.00 | 97 | 1012.8 |
| 20260906034536 | 70 | 196 | 0.0 | 0.0 | 0.00 | 0.00 | 0.00 | 97 | 1012.9 |
| 20260906034031 | 70 | 200 | 0.0 | 0.0 | 0.00 | 0.00 | 0.00 | 97 | 1012.7 |
| 20260906033526 | 70 | 213 | 0.0 | 0.0 | 0.00 | 0.00 | 0.00 | 97 | 1012.8 |
| 20260906033016 | 70 | 205 | 0.0 | 0.0 | 0.00 | 0.00 | 0.00 | 97 | 1013.0 |
| 20260906032513 | 70 | 204 | 0.0 | 0.0 | 0.00 | 0.00 | 0.00 | 97 | 1012.7 |
| 20260906032013 | 70 | 197 | 0.0 | 0.0 | 0.00 | 0.00 | 0.00 | 97 | 1012.5 |
| 20260906031508 | 70 | 200 | 0.0 | 0.0 | 0.00 | 0.00 | 0.00 | 97 | 1012.6 |
| 20260906031004 | 70 | 202 | 0.0 | 0.0 | 0.00 | 0.00 | 0.00 | 97 | 1012.6 |
| 20260906030457 | 71 | 194 | 0.0 | 0.0 | 0.00 | 0.00 | 0.00 | 97 | 1012.9 |
| 20260906025951 | 71 | 209 | 0.0 | 0.0 | 0.00 | 0.00 | 0.00 | 97 | 1012.9 |
| 20260906025446 | 71 | 207 | 0.0 | 0.9 | 0.00 | 0.00 | 0.00 | 97 | 1013.1 |
| 20260906024945 | 70 | 201 | 0.0 | 0.0 | 0.00 | 0.00 | 0.00 | 96 | 1012.8 |
| 20260906024444 | 70 | 203 | 0.0 | 0.0 | 0.00 | 0.00 | 0.00 | 96 | 1012.8 |
| 20260906023939 | 70 | 201 | 0.0 | 0.0 | 0.00 | 0.00 | 0.00 | 96 | 1012.6 |
| 20260906023435 | 70 | 204 | 0.0 | 0.0 | 0.00 | 0.00 | 0.00 | 96 | 1012.5 |
| 20260906022930 | 70 | 205 | 0.0 | 0.0 | 0.00 | 0.00 | 0.00 | 95 | 1012.6 |
| 20260906022426 | 71 | 205 | 0.0 | 0.0 | 0.00 | 0.00 | 0.00 | 95 | 1012.6 |
| 20260906021921 | 71 | 197 | 0.0 | 0.0 | 0.00 | 0.00 | 0.00 | 95 | 1012.8 |
| 20260906021420 | 71 | 205 | 0.0 | 0.0 | 0.00 | 0.00 | 0.00 | 95 | 1012.7 |
| 20260906020914 | 71 | 216 | 0.0 | 0.0 | 0.00 | 0.00 | 0.00 | 95 | 1012.6 |
| 20260906020409 | 71 | 203 | 0.0 | 0.0 | 0.00 | 0.00 | 0.00 | 95 | 1012.7 |
| 20260906015903 | 71 | 200 | 0.0 | 0.0 | 0.00 | 0.00 | 0.00 | 94 | 1012.5 |
| 20260906015402 | 71 | 204 | 0.0 | 0.0 | 0.00 | 0.00 | 0.00 | 94 | 1012.4 |
| 20260906014856 | 72 | 198 | 0.0 | 0.0 | 0.00 | 0.00 | 0.00 | 94 | 1012.6 |
| 20260906014351 | 71 | 199 | 0.0 | 0.0 | 0.00 | 0.00 | 0.00 | 94 | 1012.4 |
| 20260906013847 | 72 | 201 | 0.0 | 0.0 | 0.00 | 0.00 | 0.00 | 94 | 1012.4 |
| 20260906013343 | 72 | 201 | 0.0 | 0.0 | 0.00 | 0.00 | 0.00 | 93 | 1012.4 |
| 20260906012838 | 72 | 201 | 0.0 | 0.0 | 0.00 | 0.00 | 0.00 | 93 | 1012.3 |
| 20260906012333 | 72 | 201 | 0.0 | 0.0 | 0.00 | 0.00 | 0.00 | 93 | 1012.3 |
| 20260906011833 | 72 | 200 | 0.0 | 0.0 | 0.00 | 0.00 | 0.00 | 93 | 1012.4 |
| 20260906011328 | 72 | 200 | 0.0 | 0.0 | 0.00 | 0.00 | 0.00 | 92 | 1012.2 |
| 20260906010824 | 72 | 200 | 0.0 | 0.0 | 0.00 | 0.00 | 0.00 | 92 | 1012.2 |
| 20260906010320 | 73 | 210 | 0.0 | 0.0 | 0.00 | 0.00 | 0.00 | 92 | 1012.1 |
| 20260906005815 | 73 | 202 | 0.0 | 1.7 | 0.00 | 0.00 | 0.00 | 91 | 1012.1 |
| 20260906005313 | 73 | 204 | 0.0 | 0.0 | 0.00 | 0.00 | 0.00 | 91 | 1012.1 |
| 20260906004813 | 73 | 198 | 0.0 | 0.9 | 0.00 | 0.00 | 0.00 | 91 | 1012.0 |
| 20260906004313 | 73 | 185 | 0.0 | 0.0 | 0.00 | 0.00 | 0.00 | 90 | 1012.0 |
| 20260906003808 | 73 | 210 | 0.0 | 0.9 | 0.00 | 0.00 | 0.00 | 90 | 1011.8 |
| 20260906003303 | 74 | 195 | 0.0 | 0.9 | 0.00 | 0.00 | 0.00 | 89 | 1011.7 |
| 20260906002759 | 74 | 198 | 0.0 | 0.9 | 0.00 | 0.00 | 0.00 | 88 | 1011.7 |
| 20260906002258 | 74 | 202 | 0.0 | 0.0 | 0.00 | 0.00 | 0.00 | 88 | 1011.8 |
| 20260906001754 | 75 | 205 | 0.0 | 2.6 | 0.00 | 0.00 | 0.00 | 87 | 1011.3 |
| 20260906001248 | 75 | 199 | 0.0 | 0.0 | 0.00 | 0.00 | 0.00 | 86 | 1011.1 |
| 20260906000743 | 76 | 205 | 0.0 | 0.0 | 0.00 | 0.00 | 0.00 | 85 | 1011.4 |
| 20260906000238 | 76 | 208 | 0.0 | 0.0 | 0.00 | 0.00 | 0.00 | 84 | 1011.1 |
| 20260905235733 | 77 | 191 | 0.0 | 0.0 | 0.00 | 0.00 | 0.00 | 84 | 1011.0 |
| 20260905235232 | 77 | 198 | 0.0 | 0.0 | 0.00 | 0.00 | 0.00 | 82 | 1011.0 |
| 20260905234728 | 78 | 195 | 0.0 | 0.0 | 0.00 | 0.00 | 0.00 | 81 | 1011.3 |
| 20260905234223 | 79 | 198 | 0.0 | 0.0 | 0.00 | 0.00 | 0.00 | 79 | 1011.0 |
| 20260905233718 | 80 | 199 | 0.0 | 0.0 | 0.00 | 0.00 | 0.00 | 78 | 1011.1 |
| 20260905233218 | 82 | 195 | 0.0 | 0.0 | 0.00 | 0.00 | 0.00 | 77 | 1011.2 |
| 20260905232713 | 83 | 199 | 0.0 | 0.0 | 0.00 | 0.00 | 0.00 | 75 | 1011.1 |
| 20260905232208 | 84 | 200 | 0.0 | 0.0 | 0.00 | 0.00 | 0.00 | 74 | 1011.2 |
| 20260905231704 | 85 | 199 | 0.0 | 0.0 | 0.00 | 0.00 | 0.00 | 73 | 1010.8 |
| 20260905231200 | 87 | 198 | 0.0 | 0.0 | 0.00 | 0.00 | 0.00 | 71 | 1011.0 |
| 20260905230655 | 87 | 205 | 0.0 | 0.0 | 0.00 | 0.00 | 0.00 | 70 | 1011.0 |
| 20260905230153 | 86 | 208 | 0.0 | 0.0 | 0.00 | 0.00 | 0.00 | 71 | 1011.2 |
| 20260905225653 | 86 | 205 | 0.0 | 0.0 | 0.00 | 0.00 | 0.00 | 69 | 1011.4 |
| 20260905225148 | 86 | 205 | 0.0 | 0.9 | 0.00 | 0.00 | 0.00 | 69 | 1011.4 |
| 20260905224647 | 87 | 190 | 0.9 | 0.9 | 0.00 | 0.00 | 0.00 | 67 | 1011.1 |
| 20260905224142 | 87 | 206 | 0.0 | 0.9 | 0.00 | 0.00 | 0.00 | 66 | 1011.2 |
| 20260905223639 | 87 | 205 | 0.9 | 1.7 | 0.00 | 0.00 | 0.00 | 66 | 1011.3 |
| 20260905223136 | 87 | 200 | 0.0 | 0.9 | 0.00 | 0.00 | 0.00 | 66 | 1011.3 |
| 20260905222631 | 88 | 202 | 0.9 | 0.9 | 0.00 | 0.00 | 0.00 | 66 | 1011.3 |
| 20260905222126 | 88 | 196 | 0.0 | 0.9 | 0.00 | 0.00 | 0.00 | 67 | 1011.1 |
| 20260905221621 | 87 | 202 | 0.0 | 0.9 | 0.00 | 0.00 | 0.00 | 67 | 1011.3 |
| 20260905221118 | 87 | 203 | 0.9 | 1.7 | 0.00 | 0.00 | 0.00 | 67 | 1011.2 |
| 20260905220613 | 87 | 204 | 0.0 | 2.6 | 0.00 | 0.00 | 0.00 | 68 | 1011.0 |
| 20260905220109 | 87 | 171 | 1.7 | 1.7 | 0.00 | 0.00 | 0.00 | 67 | 1011.2 |
| 20260905215608 | 87 | 210 | 0.0 | 0.9 | 0.00 | 0.00 | 0.00 | 68 | 1011.4 |
| 20260905215104 | 86 | 220 | 0.9 | 1.7 | 0.00 | 0.00 | 0.00 | 69 | 1011.3 |
| 20260905214601 | 86 | 223 | 1.7 | 2.6 | 0.00 | 0.00 | 0.00 | 68 | 1011.3 |
| 20260905214100 | 86 | 215 | 1.7 | 1.7 | 0.00 | 0.00 | 0.00 | 68 | 1011.3 |
| 20260905213556 | 86 | 205 | 0.0 | 1.7 | 0.00 | 0.00 | 0.00 | 67 | 1011.3 |
| 20260905213051 | 88 | 201 | 0.0 | 3.5 | 0.00 | 0.00 | 0.00 | 67 | 1011.3 |
| 20260905212551 | 87 | 209 | 0.0 | 0.0 | 0.00 | 0.00 | 0.00 | 69 | 1011.1 |
| 20260905212045 | 86 | 208 | 0.9 | 1.7 | 0.00 | 0.00 | 0.00 | 70 | 1011.1 |
| 20260905211540 | 86 | 207 | 1.7 | 2.6 | 0.00 | 0.00 | 0.00 | 71 | 1011.1 |
| 20260905211036 | 85 | 214 | 2.6 | 2.6 | 0.00 | 0.00 | 0.00 | 71 | 1011.0 |
| 20260905210531 | 85 | 231 | 2.6 | 2.6 | 0.00 | 0.00 | 0.00 | 71 | 1011.1 |
| 20260905210026 | 84 | 200 | 1.7 | 2.6 | 0.00 | 0.00 | 0.00 | 71 | 1010.9 |
| 20260905205525 | 84 | 210 | 2.6 | 2.6 | 0.00 | 0.00 | 0.00 | 70 | 1010.8 |
| 20260905205024 | 84 | 224 | 3.5 | 3.5 | 0.00 | 0.00 | 0.00 | 69 | 1011.1 |
| 20260905204520 | 84 | 208 | 1.7 | 5.2 | 0.00 | 0.00 | 0.00 | 68 | 1011.1 |
| 20260905204015 | 84 | 238 | 1.7 | 3.5 | 0.00 | 0.00 | 0.00 | 70 | 1011.2 |
| 20260905203509 | 83 | 223 | 3.5 | 3.5 | 0.00 | 0.00 | 0.00 | 70 | 1010.8 |
| 20260905203005 | 84 | 214 | 2.6 | 3.5 | 0.00 | 0.00 | 0.00 | 69 | 1010.9 |
| 20260905202500 | 84 | 254 | 3.5 | 7.0 | 0.00 | 0.00 | 0.00 | 70 | 1011.2 |
| 20260905201956 | 84 | 230 | 0.9 | 2.6 | 0.00 | 0.00 | 0.00 | 72 | 1011.2 |
| 20260905201450 | 83 | 227 | 3.5 | 5.2 | 0.00 | 0.00 | 0.00 | 72 | 1011.3 |
| 20260905200950 | 83 | 214 | 2.6 | 2.6 | 0.00 | 0.00 | 0.00 | 72 | 1011.1 |
| 20260905200446 | 83 | 207 | 1.7 | 2.6 | 0.00 | 0.00 | 0.00 | 72 | 1011.3 |
| 20260905195944 | 82 | 208 | 0.9 | 2.6 | 0.00 | 0.00 | 0.00 | 72 | 1011.3 |
| 20260905195440 | 82 | 203 | 0.9 | 2.6 | 0.00 | 0.00 | 0.00 | 73 | 1011.2 |
| 20260905194935 | 82 | 204 | 2.6 | 5.2 | 0.00 | 0.00 | 0.00 | 73 | 1011.4 |
| 20260905194434 | 83 | 210 | 1.7 | 2.6 | 0.00 | 0.00 | 0.00 | 75 | 1011.4 |
| 20260905193929 | 83 | 204 | 0.0 | 2.6 | 0.00 | 0.00 | 0.00 | 73 | 1011.1 |
| 20260905193424 | 83 | 228 | 3.5 | 3.5 | 0.00 | 0.00 | 0.00 | 70 | 1010.9 |
| 20260905192919 | 84 | 216 | 0.9 | 2.6 | 0.00 | 0.00 | 0.00 | 69 | 1011.0 |
| 20260905192414 | 84 | 198 | 1.7 | 2.6 | 0.00 | 0.00 | 0.00 | 69 | 1010.9 |
| 20260905191914 | 84 | 204 | 1.7 | 2.6 | 0.00 | 0.00 | 0.00 | 69 | 1011.0 |
| 20260905191414 | 84 | 214 | 1.7 | 2.6 | 0.00 | 0.00 | 0.00 | 69 | 1010.8 |
| 20260905190908 | 84 | 275 | 1.7 | 5.2 | 0.00 | 0.00 | 0.00 | 69 | 1011.0 |
| 20260905190400 | 84 | 225 | 1.7 | 3.5 | 0.00 | 0.00 | 0.00 | 70 | 1011.0 |
| 20260905185859 | 83 | 198 | 1.7 | 2.6 | 0.00 | 0.00 | 0.00 | 71 | 1010.8 |
| 20260905185355 | 83 | 202 | 0.9 | 1.7 | 0.00 | 0.00 | 0.00 | 73 | 1011.0 |
| 20260905184853 | 82 | 196 | 1.7 | 2.6 | 0.00 | 0.00 | 0.00 | 74 | 1010.9 |
| 20260905184353 | 81 | 221 | 2.6 | 5.2 | 0.00 | 0.00 | 0.00 | 76 | 1011.2 |
| 20260905183851 | 80 | 208 | 2.6 | 5.2 | 0.00 | 0.00 | 0.00 | 78 | 1011.5 |
| 20260905183347 | 79 | 222 | 1.7 | 3.5 | 0.00 | 0.00 | 0.00 | 79 | 1011.5 |
| 20260905182841 | 78 | 222 | 2.6 | 2.6 | 0.00 | 0.00 | 0.00 | 79 | 1011.5 |
| 20260905182335 | 79 | 217 | 1.7 | 2.6 | 0.00 | 0.00 | 0.00 | 77 | 1011.7 |
| 20260905181831 | 79 | 206 | 0.0 | 1.7 | 0.00 | 0.00 | 0.00 | 75 | 1011.5 |
| 20260905181325 | 80 | 180 | 0.0 | 1.7 | 0.00 | 0.00 | 0.00 | 72 | 1011.8 |
| 20260905180824 | 80 | 202 | 0.0 | 2.6 | 0.00 | 0.00 | 0.00 | 70 | 1012.2 |
| 20260905180320 | 81 | 210 | 0.0 | 0.0 | 0.00 | 0.00 | 0.00 | 68 | 1012.3 |
| 20260905175814 | 81 | 198 | 0.0 | 0.0 | 0.00 | 0.00 | 0.00 | 67 | 1012.3 |
| 20260905175308 | 82 | 207 | 0.0 | 1.7 | 0.00 | 0.00 | 0.00 | 69 | 1012.6 |
| 20260905174804 | 82 | 210 | 0.0 | 0.0 | 0.00 | 0.00 | 0.00 | 67 | 1012.9 |
| 20260905174300 | 82 | 206 | 0.9 | 1.7 | 0.00 | 0.00 | 0.00 | 67 | 1013.1 |
| 20260905173756 | 82 | 204 | 0.0 | 1.7 | 0.00 | 0.00 | 0.00 | 66 | 1013.1 |
| 20260905173251 | 82 | 195 | 0.0 | 1.7 | 0.00 | 0.00 | 0.00 | 66 | 1013.2 |
| 20260905172750 | 82 | 181 | 0.0 | 1.7 | 0.00 | 0.00 | 0.00 | 66 | 1013.3 |
| 20260905172249 | 83 | 200 | 0.9 | 3.5 | 0.00 | 0.00 | 0.00 | 65 | 1013.5 |
| 20260905171746 | 83 | 214 | 0.9 | 3.5 | 0.00 | 0.00 | 0.00 | 64 | 1013.8 |
| 20260905171242 | 84 | 4 | 7.0 | 9.6 | 0.00 | 0.00 | 0.00 | 63 | 1013.7 |
| 20260905170738 | 85 | 332 | 5.2 | 8.7 | 0.00 | 0.00 | 0.00 | 65 | 1013.7 |
| 20260905170234 | 87 | 236 | 2.6 | 6.1 | 0.00 | 0.00 | 0.00 | 66 | 1013.4 |
| 20260905165732 | 88 | 315 | 1.7 | 5.2 | 0.00 | 0.00 | 0.00 | 65 | 1013.4 |
| 20260905165228 | 90 | 313 | 5.2 | 11.3 | 0.00 | 0.00 | 0.00 | 66 | 1013.6 |
| 20260905164727 | 91 | 299 | 2.6 | 5.2 | 0.00 | 0.00 | 0.00 | 66 | 1013.4 |
| 20260905164223 | 91 | 208 | 2.6 | 5.2 | 0.00 | 0.00 | 0.00 | 66 | 1013.6 |
| 20260905163719 | 91 | 225 | 0.9 | 0.9 | 0.00 | 0.00 | 0.00 | 68 | 1013.6 |
| 20260905163215 | 91 | 227 | 0.9 | 2.6 | 0.00 | 0.00 | 0.00 | 68 | 1013.3 |
| 20260905162711 | 92 | 261 | 0.9 | 5.2 | 0.00 | 0.00 | 0.00 | 69 | 1013.4 |
| 20260905162210 | 93 | 203 | 0.0 | 2.6 | 0.00 | 0.00 | 0.00 | 67 | 1013.2 |
| 20260905161705 | 91 | 195 | 0.0 | 0.9 | 0.00 | 0.00 | 0.00 | 69 | 1013.2 |
| 20260905161203 | 91 | 219 | 1.7 | 3.5 | 0.00 | 0.00 | 0.00 | 70 | 1013.4 |
| 20260905160702 | 91 | 227 | 0.9 | 1.7 | 0.00 | 0.00 | 0.00 | 70 | 1013.4 |
| 20260905160202 | 91 | 243 | 3.5 | 5.2 | 0.00 | 0.00 | 0.00 | 70 | 1013.5 |
| 20260905155656 | 92 | 205 | 1.7 | 2.6 | 0.00 | 0.00 | 0.00 | 70 | 1013.5 |
| 20260905155155 | 92 | 214 | 0.0 | 0.9 | 0.00 | 0.00 | 0.00 | 72 | 1013.5 |
| 20260905154650 | 91 | 207 | 0.0 | 0.0 | 0.00 | 0.00 | 0.00 | 73 | 1013.5 |
| 20260905154145 | 91 | 209 | 0.9 | 3.5 | 0.00 | 0.00 | 0.00 | 74 | 1013.7 |
| 20260905153641 | 90 | 210 | 0.9 | 1.7 | 0.00 | 0.00 | 0.00 | 74 | 1013.6 |
| 20260905153136 | 89 | 223 | 0.0 | 1.7 | 0.00 | 0.00 | 0.00 | 75 | 1013.6 |
| 20260905152631 | 89 | 209 | 0.9 | 3.5 | 0.00 | 0.00 | 0.00 | 76 | 1013.4 |
| 20260905152126 | 91 | 209 | 1.7 | 2.6 | 0.00 | 0.00 | 0.00 | 77 | 1013.5 |
| 20260905151621 | 89 | 194 | 0.0 | 1.7 | 0.00 | 0.00 | 0.00 | 80 | 1013.2 |
| 20260905151116 | 88 | 195 | 0.0 | 1.7 | 0.00 | 0.00 | 0.00 | 81 | 1013.2 |
| 20260905150612 | 87 | 211 | 2.6 | 2.6 | 0.00 | 0.00 | 0.00 | 82 | 1013.2 |
| 20260905150109 | 86 | 210 | 1.7 | 6.1 | 0.00 | 0.00 | 0.00 | 84 | 1013.3 |
| 20260905145603 | 86 | 301 | 0.9 | 3.5 | 0.00 | 0.00 | 0.00 | 86 | 1013.2 |
| 20260905145102 | 86 | 220 | 1.7 | 3.5 | 0.00 | 0.00 | 0.00 | 88 | 1013.5 |
| 20260905144557 | 85 | 204 | 0.0 | 2.6 | 0.00 | 0.00 | 0.00 | 89 | 1013.4 |
| 20260905144056 | 85 | 241 | 0.9 | 1.7 | 0.00 | 0.00 | 0.00 | 91 | 1013.5 |
| 20260905143556 | 84 | 247 | 1.7 | 2.6 | 0.00 | 0.00 | 0.00 | 92 | 1013.5 |
| 20260905143051 | 84 | 225 | 1.7 | 2.6 | 0.00 | 0.00 | 0.00 | 93 | 1013.8 |
| 20260905142549 | 83 | 190 | 1.7 | 3.5 | 0.00 | 0.00 | 0.00 | 94 | 1013.6 |
| 20260905142044 | 82 | 190 | 1.7 | 2.6 | 0.00 | 0.00 | 0.00 | 96 | 1013.7 |
| 20260905141539 | 82 | 198 | 0.9 | 1.7 | 0.00 | 0.00 | 0.00 | 96 | 1013.5 |
| 20260905141036 | 82 | 201 | 0.0 | 2.6 | 0.00 | 0.00 | 0.00 | 97 | 1013.7 |
| 20260905140536 | 81 | 233 | 1.7 | 2.6 | 0.00 | 0.00 | 0.00 | 98 | 1013.5 |
| 20260905140035 | 81 | 228 | 0.9 | 2.6 | 0.00 | 0.00 | 0.00 | 98 | 1013.6 |
| 20260905135530 | 80 | 196 | 0.0 | 0.9 | 0.00 | 0.00 | 0.00 | 99 | 1013.3 |
| 20260905135025 | 80 | 213 | 0.9 | 1.7 | 0.00 | 0.00 | 0.00 | 99 | 1013.4 |
| 20260905134520 | 79 | 223 | 0.0 | 1.7 | 0.00 | 0.00 | 0.00 | 99 | 1013.4 |
| 20260905134019 | 78 | 199 | 0.0 | 1.7 | 0.00 | 0.00 | 0.00 | 99 | 1013.5 |
| 20260905133514 | 77 | 195 | 0.9 | 1.7 | 0.00 | 0.00 | 0.00 | 99 | 1013.8 |
| 20260905133014 | 77 | 204 | 0.0 | 0.9 | 0.00 | 0.00 | 0.00 | 99 | 1013.6 |
| 20260905132508 | 76 | 208 | 1.7 | 1.7 | 0.00 | 0.00 | 0.00 | 99 | 1013.8 |
| 20260905132003 | 75 | 210 | 0.0 | 0.0 | 0.00 | 0.00 | 0.00 | 99 | 1013.6 |
| 20260905131459 | 75 | 206 | 0.0 | 1.7 | 0.00 | 0.00 | 0.00 | 99 | 1013.5 |
| 20260905130954 | 74 | 208 | 0.0 | 0.9 | 0.00 | 0.00 | 0.00 | 99 | 1013.4 |
| 20260905130453 | 74 | 198 | 0.0 | 0.9 | 0.00 | 0.00 | 0.00 | 99 | 1013.8 |
| 20260905125953 | 74 | 234 | 0.9 | 1.7 | 0.00 | 0.00 | 0.00 | 99 | 1013.8 |
| 20260905125447 | 73 | 205 | 0.0 | 0.0 | 0.00 | 0.00 | 0.00 | 99 | 1013.7 |
| 20260905124943 | 72 | 204 | 0.0 | 0.9 | 0.00 | 0.00 | 0.00 | 99 | 1013.9 |
| 20260905124440 | 72 | 205 | 0.0 | 0.9 | 0.00 | 0.00 | 0.00 | 99 | 1013.8 |
| 20260905123934 | 71 | 203 | 0.0 | 1.7 | 0.00 | 0.00 | 0.00 | 99 | 1013.9 |
| 20260905123431 | 71 | 183 | 0.0 | 0.9 | 0.00 | 0.00 | 0.00 | 99 | 1013.8 |
| 20260905122926 | 71 | 207 | 0.0 | 0.9 | 0.00 | 0.00 | 0.00 | 99 | 1013.8 |
| 20260905122426 | 71 | 209 | 0.0 | 0.0 | 0.00 | 0.00 | 0.00 | 99 | 1013.8 |
| 20260905121921 | 70 | 205 | 0.0 | 0.0 | 0.00 | 0.00 | 0.00 | 99 | 1013.9 |
| 20260905121417 | 70 | 211 | 0.0 | 1.7 | 0.00 | 0.00 | 0.00 | 99 | 1013.9 |
| 20260905120915 | 69 | 203 | 0.0 | 0.0 | 0.00 | 0.00 | 0.00 | 99 | 1013.8 |
| 20260905120410 | 69 | 225 | 0.0 | 0.0 | 0.00 | 0.00 | 0.00 | 99 | 1013.9 |
| 20260905115905 | 68 | 207 | 0.0 | 0.0 | 0.00 | 0.00 | 0.00 | 99 | 1013.8 |
| 20260905115404 | 68 | 206 | 0.0 | 0.0 | 0.00 | 0.00 | 0.00 | 99 | 1013.8 |
| 20260905114859 | 68 | 210 | 0.0 | 0.0 | 0.00 | 0.00 | 0.00 | 99 | 1013.8 |
| 20260905114358 | 67 | 208 | 0.0 | 0.0 | 0.00 | 0.00 | 0.00 | 99 | 1013.7 |
| 20260905113852 | 67 | 203 | 0.0 | 0.0 | 0.00 | 0.00 | 0.00 | 99 | 1013.5 |
| 20260905113348 | 67 | 203 | 0.0 | 0.0 | 0.00 | 0.00 | 0.00 | 99 | 1013.4 |
| 20260905112843 | 66 | 192 | 0.0 | 0.0 | 0.00 | 0.00 | 0.00 | 99 | 1013.4 |
| 20260905112337 | 66 | 202 | 0.0 | 0.0 | 0.00 | 0.00 | 0.00 | 99 | 1013.3 |
| 20260905111832 | 66 | 202 | 0.0 | 0.0 | 0.00 | 0.00 | 0.00 | 99 | 1013.2 |
| 20260905111327 | 66 | 202 | 0.0 | 0.0 | 0.00 | 0.00 | 0.00 | 99 | 1013.2 |
| 20260905110826 | 66 | 193 | 0.0 | 0.0 | 0.00 | 0.00 | 0.00 | 99 | 1013.4 |
| 20260905110320 | 66 | 196 | 0.0 | 0.0 | 0.00 | 0.00 | 0.00 | 99 | 1013.4 |
| 20260905105816 | 66 | 203 | 0.0 | 0.0 | 0.00 | 0.00 | 0.00 | 99 | 1013.4 |
| 20260905105315 | 66 | 200 | 0.0 | 0.0 | 0.00 | 0.00 | 0.00 | 99 | 1013.2 |
| 20260905104809 | 66 | 200 | 0.0 | 0.0 | 0.00 | 0.00 | 0.00 | 99 | 1013.0 |
| 20260905104306 | 66 | 201 | 0.0 | 0.0 | 0.00 | 0.00 | 0.00 | 99 | 1013.2 |
| 20260905103805 | 66 | 203 | 0.0 | 0.0 | 0.00 | 0.00 | 0.00 | 99 | 1013.1 |
| 20260905103301 | 66 | 202 | 0.0 | 0.0 | 0.00 | 0.00 | 0.00 | 99 | 1013.1 |
| 20260905102756 | 66 | 203 | 0.0 | 0.0 | 0.00 | 0.00 | 0.00 | 99 | 1013.0 |
| 20260905102253 | 66 | 203 | 0.0 | 0.0 | 0.00 | 0.00 | 0.00 | 99 | 1013.0 |
| 20260905101753 | 66 | 202 | 0.0 | 0.0 | 0.00 | 0.00 | 0.00 | 99 | 1012.8 |
| 20260905101251 | 67 | 198 | 0.0 | 0.0 | 0.00 | 0.00 | 0.00 | 99 | 1013.0 |
| 20260905100746 | 67 | 198 | 0.0 | 0.0 | 0.00 | 0.00 | 0.00 | 99 | 1013.0 |
| 20260905100242 | 67 | 198 | 0.0 | 0.0 | 0.00 | 0.00 | 0.00 | 99 | 1012.8 |
| 20260905095742 | 67 | 197 | 0.0 | 0.0 | 0.00 | 0.00 | 0.00 | 99 | 1013.1 |
| 20260905095241 | 67 | 198 | 0.0 | 0.0 | 0.00 | 0.00 | 0.00 | 99 | 1013.0 |
| 20260905094736 | 67 | 197 | 0.0 | 0.0 | 0.00 | 0.00 | 0.00 | 99 | 1012.8 |
| 20260905094231 | 67 | 203 | 0.0 | 0.0 | 0.00 | 0.00 | 0.00 | 99 | 1012.7 |
| 20260905093730 | 67 | 203 | 0.0 | 0.0 | 0.00 | 0.00 | 0.00 | 99 | 1012.9 |
| 20260905093227 | 67 | 207 | 0.0 | 0.0 | 0.00 | 0.00 | 0.00 | 99 | 1012.9 |
| 20260905092722 | 67 | 207 | 0.0 | 0.0 | 0.00 | 0.00 | 0.00 | 99 | 1012.8 |
| 20260905092217 | 67 | 199 | 0.0 | 0.0 | 0.00 | 0.00 | 0.00 | 99 | 1012.6 |
| 20260905091716 | 67 | 199 | 0.0 | 0.0 | 0.00 | 0.00 | 0.00 | 99 | 1012.7 |
| 20260905091211 | 67 | 202 | 0.0 | 0.0 | 0.00 | 0.00 | 0.00 | 99 | 1012.8 |
| 20260905090705 | 67 | 202 | 0.0 | 0.0 | 0.00 | 0.00 | 0.00 | 99 | 1012.8 |